Iowa City, IA

5:53 PM CST on February 22, 2017 (GMT -0600)
Iowa City Municipal

Weather History for KIOW - February, 2014

Change the Weather History Date:

Tuesday, February 25, 2014

  Actual Average Record
Temperature  
Mean Temperature 9 °F 30 °F  
Max Temperature 15 °F 38 °F 59 °F (1957)
Min Temperature 2 °F 21 °F -10 °F (1967)
Degree Days  
Heating Degree Days 56 35  
Month to date heating degree days 1271 980  
Since 1 July heating degree days 5631 4847  
Cooling Degree Days 0 0  
Month to date cooling degree days 0 0  
Year to date cooling degree days 0 0  
Moisture  
Dew Point 1 °F    
Average Humidity 69    
Maximum Humidity 88    
Minimum Humidity 50    
Precipitation  
Precipitation T in 0.05 in 0.49 in (1954)
Month to date precipitation 1.47 1.09  
Year to date precipitation 1.82 2.01  
Sea Level Pressure  
Sea Level Pressure 30.39 in    
Wind  
Wind Speed 13 mph (NW)    
Max Wind Speed 24 mph    
Max Gust Speed 29 mph    
Visibility 9 miles    
Events Snow    
T = Trace of Precipitation, MM = Missing Value Source: NWS Daily Summary

Daily Weather History Graph

Daily Weather History Graph

Search for Another Location

Airport or City:

Trip Planner

Search our weather history database for the weather conditions in past years. The results will help you decide how hot, cold, wet, or windy it might be!

Date:

Astronomy

Feb. 25, 2014 Rise Set
Actual Time 6:47 AM CST 5:51 PM CST
Civil Twilight 6:19 AM CST 6:19 PM CST
Nautical Twilight 5:46 AM CST 6:52 PM CST
Astronomical Twilight 5:14 AM CST 7:24 PM CST
Moon 3:44 AM CST (2/25) 1:55 PM CST (2/25)
Length of Visible Light 12h 00m
Length of Day
11h 04m
Waning Crescent, 18% of the Moon is Illuminated
Feb 25
Waning Crescent
Mar 1
New
Mar 8
First Quarter
Mar 16
Full
Mar 23
Last Quarter

Hourly Weather History & Observations

Time (CST) Temp. Windchill Dew Point Humidity Pressure Visibility Wind Dir Wind Speed Gust Speed Precip Events Conditions
12:19 AM 14.0 °F 3.9 °F 10.0 °F 84% 30.33 in 3.0 mi WNW 6.9 mph - 0.00 in Snow Light Snow
12:52 AM 14.0 °F 2.9 °F 10.0 °F 84% 30.37 in 2.5 mi NW 8.1 mph - 0.00 in Snow Light Snow
1:07 AM 14.0 °F 2.0 °F 9.0 °F 80% 30.33 in 3.0 mi NNW 9.2 mph - 0.00 in Snow Light Snow
1:52 AM 12.9 °F 2.6 °F 9.0 °F 84% 30.37 in 4.0 mi NW 6.9 mph - 0.00 in Snow Light Snow
2:52 AM 12.9 °F 1.6 °F 8.1 °F 81% 30.35 in 10.0 mi NNW 8.1 mph - 0.00 in   Overcast
3:52 AM 10.9 °F -3.4 °F 6.1 °F 81% 30.36 in 10.0 mi NW 11.5 mph - N/A   Partly Cloudy
4:52 AM 9.0 °F -5.9 °F 5.0 °F 84% 30.37 in 10.0 mi NW 11.5 mph - N/A   Clear
5:52 AM 8.1 °F -8.4 °F 3.0 °F 80% 30.37 in 10.0 mi NW 13.8 mph - N/A   Clear
6:52 AM 7.0 °F -8.3 °F 1.9 °F 80% 30.37 in 10.0 mi NW 11.5 mph - N/A   Clear
7:52 AM 7.0 °F -10.4 °F 1.0 °F 77% 30.38 in 10.0 mi NNW 15.0 mph 21.9 mph N/A   Clear
8:52 AM 7.0 °F -10.4 °F -0.9 °F 70% 30.40 in 10.0 mi NW 15.0 mph - N/A   Clear
9:52 AM 7.0 °F -9.1 °F -2.0 °F 67% 30.42 in 10.0 mi NW 12.7 mph - N/A   Clear
10:52 AM 8.1 °F -7.7 °F -2.9 °F 61% 30.43 in 10.0 mi WNW 12.7 mph - N/A   Clear
11:52 AM 10.0 °F -5.9 °F -2.0 °F 58% 30.43 in 10.0 mi NW 13.8 mph - N/A   Clear
12:52 PM 8.1 °F -10.2 °F -4.0 °F 58% 30.40 in 10.0 mi NW 17.3 mph - N/A   Clear
1:52 PM 9.0 °F -7.3 °F -2.0 °F 61% 30.40 in 10.0 mi NNW 13.8 mph - N/A   Partly Cloudy
2:52 PM 9.0 °F -7.9 °F -2.9 °F 59% 30.38 in 10.0 mi NW 15.0 mph 26.5 mph N/A   Clear
3:52 PM 10.0 °F -6.5 °F -2.9 °F 56% 30.37 in 10.0 mi NW 15.0 mph - N/A   Clear
4:52 PM 10.0 °F -6.5 °F -5.1 °F 51% 30.36 in 10.0 mi WNW 15.0 mph - N/A   Clear
5:52 PM 8.1 °F -7.0 °F -2.9 °F 61% 30.38 in 10.0 mi NW 11.5 mph - N/A   Clear
6:52 PM 7.0 °F - -2.9 °F 64% 30.38 in 10.0 mi North - - N/A   Clear
7:52 PM 7.0 °F -5.7 °F -2.0 °F 67% 30.38 in 10.0 mi WNW 8.1 mph - N/A   Partly Cloudy
8:52 PM 8.1 °F -9.0 °F -2.0 °F 64% 30.40 in 10.0 mi WNW 15.0 mph - N/A   Clear
9:52 PM 6.1 °F -13.8 °F -2.9 °F 67% 30.42 in 10.0 mi NW 19.6 mph 28.8 mph N/A   Clear
10:52 PM 3.9 °F -13.7 °F -4.0 °F 70% 30.43 in 10.0 mi NW 13.8 mph 26.5 mph N/A   Partly Cloudy
11:52 PM 1.9 °F -16.9 °F -7.1 °F 66% 30.44 in 10.0 mi NW 15.0 mph - N/A   Clear